Wind_Speed
15 14 12 11 9 9 12 12 13 13 11 13 15 14 15 17 17 19 20 20 19 17 15 13 10 8 7 6 5 7 8 9 10 11 11 11 11 12 12 12 11 10 9 9
17 14 13 13 11 12 15 16 14 13 13 14 14 14 16 17 17 18 19 19 19 17 13 11 10 7 6 5 5 5 7 8 9 11 11 11 11 11 11 11 11 10 9 9
18 14 14 15 14 14 16 15 14 14 14 14 15 15 16 17 16 16 17 18 17 15 12 10 8 7 6 5 4 4 6 8 9 10 10 10 11 11 11 11 11 10 10 10
18 15 16 17 16 15 15 13 14 15 15 16 16 17 17 16 15 16 15 16 15 13 11 10 8 7 6 6 5 4 5 8 9 9 10 10 11 11 11 12 12 11 10 10
17 15 17 18 17 16 15 14 15 15 16 15 15 16 15 15 15 15 17 16 15 13 12 10 8 7 6 6 5 4 5 7 8 9 10 10 11 12 12 12 12 11 11 11
17 16 17 16 16 16 15 15 16 15 14 15 15 16 13 14 16 16 16 16 15 13 12 11 10 8 7 6 5 4 4 6 8 9 10 10 11 11 12 13 13 12 11 11
17 17 17 16 16 15 15 15 14 13 15 16 14 12 10 12 15 16 16 15 14 12 12 10 10 8 6 6 5 5 5 6 7 9 10 11 11 12 13 13 13 13 12 12
14 14 14 15 15 15 15 15 15 15 17 18 15 13 9 11 12 14 16 15 13 12 11 10 9 8 6 6 5 5 5 7 9 10 11 11 12 13 13 14 13 13 14 14
11 12 12 15 15 15 15 15 14 16 17 18 17 14 11 12 10 13 15 15 13 12 11 10 10 8 7 6 6 6 6 7 9 11 12 12 12 13 14 14 14 13 14 14
17 15 13 15 16 16 16 15 15 16 17 17 17 18 17 10 8 11 14 15 13 12 11 9 9 8 7 7 6 6 6 7 8 10 12 13 13 13 14 14 14 14 14 15
21 21 16 16 16 13 14 16 18 17 17 17 18 20 18 12 8 12 15 15 14 13 10 9 9 8 8 7 7 6 6 6 7 9 11 12 13 14 14 14 15 15 16 16
23 23 21 19 18 15 15 16 16 19 19 18 17 19 19 14 11 11 14 15 15 14 12 11 9 9 8 8 7 6 6 6 5 6 8 11 13 14 15 15 15 17 17 18
27 26 25 20 18 19 19 18 18 19 19 19 17 20 20 18 15 14 14 15 16 15 13 12 11 10 9 8 8 7 7 6 6 7 8 10 12 13 15 16 16 18 19 19
30 30 27 22 20 24 25 23 22 21 21 20 19 22 23 21 20 17 15 14 17 16 15 14 13 12 11 10 9 8 8 8 7 7 8 9 12 13 15 16 17 18 19 20
33 33 31 29 26 25 24 24 25 25 23 23 24 24 25 25 21 19 18 17 17 17 16 16 15 13 12 11 11 10 10 9 8 8 8 9 11 13 14 16 17 18 18 19
33 35 33 32 30 29 28 25 23 22 22 25 27 26 27 28 25 22 21 19 18 18 18 17 16 15 14 13 13 12 11 10 10 9 9 10 11 12 13 15 16 17 17 18
31 33 33 32 31 32 31 25 23 23 25 26 28 29 30 29 29 27 25 22 21 22 21 19 18 17 16 15 14 14 13 12 12 12 12 12 12 13 14 15 16 17 19 19
31 31 31 31 32 34 30 28 28 29 30 30 31 32 33 33 30 29 26 25 25 24 22 21 20 19 18 17 16 16 15 14 14 14 14 14 14 14 14 15 16 17 18 19
32 32 31 30 31 31 29 29 29 30 31 33 34 33 34 36 34 32 30 29 27 25 25 24 22 21 19 18 18 18 17 16 16 16 17 17 17 17 17 18 18 19 19 21
31 31 30 30 30 29 29 30 30 30 33 33 33 35 36 35 34 33 32 31 29 28 26 25 24 23 21 20 20 20 20 19 19 19 19 19 19 19 19 19 20 20 21 22
28 29 29 29 30 29 31 31 30 31 34 34 34 35 36 37 36 34 33 32 32 30 28 27 26 25 24 23 22 22 21 22 21 21 21 20 21 21 21 21 22 22 23 24
26 26 27 27 28 30 33 32 32 34 34 34 34 35 35 35 35 35 34 33 32 31 29 29 28 27 26 25 24 23 24 23 22 22 22 23 24 23 22 23 24 25 26 27
29 28 28 28 30 33 33 34 33 34 35 35 35 35 34 34 34 35 34 33 33 32 31 29 29 28 27 26 26 26 26 25 25 25 25 26 27 26 26 26 26 26 28 29
28 29 28 29 31 32 32 32 33 33 33 34 35 35 35 34 34 34 34 34 33 32 31 30 30 29 28 27 28 28 27 27 27 27 27 28 28 28 27 27 27 27 29 30
25 27 28 27 28 30 31 32 32 32 32 32 33 34 33 33 33 32 32 33 33 32 31 31 31 31 30 29 28 29 30 29 29 29 29 28 28 28 28 28 28 29 30 31
26 27 28 27 27 28 29 30 30 30 30 30 30 31 31 32 32 32 31 31 31 32 32 30 30 30 30 29 29 30 30 29 30 30 29 28 27 28 28 29 30 31 32 32
Wind_Direction
280 281 282 275 269 271 270 264 263 272 278 282 290 297 300 308 314 319 322 325 326 327 328 326 322 317 312 294 280 257 242 231 219 212 214 214 211 208 208 207 208 209 210 210
276 280 275 268 256 256 262 259 252 258 267 276 285 292 295 308 317 319 323 325 325 325 326 331 326 319 319 307 291 264 237 228 216 212 213 216 215 211 210 211 211 209 210 206
274 274 272 272 265 253 253 255 255 259 265 273 281 285 295 304 311 321 326 328 327 330 330 332 326 323 328 327 309 284 237 225 220 217 214 215 209 208 211 212 212 213 211 206
267 263 257 260 263 257 255 255 257 258 265 269 275 286 291 302 305 318 324 332 336 332 332 332 324 319 321 325 323 295 253 229 225 219 214 213 210 210 210 210 212 212 212 207
260 259 255 253 256 252 248 247 254 258 262 263 267 276 284 304 312 317 324 333 335 330 333 336 326 318 318 318 318 297 253 230 223 215 214 216 212 214 213 211 213 215 215 212
252 248 256 254 252 252 247 246 249 254 261 267 265 267 275 298 310 315 319 325 328 327 330 336 333 318 309 312 305 292 255 230 216 212 211 211 212 213 212 215 219 218 216 215
249 242 244 251 249 246 247 247 247 260 271 276 271 263 261 293 303 308 311 314 320 324 326 330 332 327 310 303 303 288 259 234 220 214 215 217 217 215 213 215 219 220 219 220
247 254 250 248 248 238 237 241 243 252 271 285 290 272 244 274 296 301 303 306 314 320 322 325 332 332 319 311 305 287 270 245 233 224 223 223 222 220 218 218 222 224 224 228
224 257 261 254 251 242 232 238 243 257 270 286 289 286 273 270 290 300 305 307 309 315 319 324 327 329 323 317 308 294 279 259 244 234 230 227 223 221 222 221 224 228 231 233
207 224 235 248 249 242 232 227 239 246 260 267 274 276 271 263 283 295 306 308 306 309 314 318 320 325 325 318 313 305 287 267 248 240 233 229 226 226 228 228 231 233 235 237
216 218 221 237 250 248 244 231 228 236 246 259 268 279 282 279 266 292 303 305 303 303 306 312 315 319 323 319 314 312 300 282 256 242 233 228 228 230 229 230 232 236 238 241
226 225 223 225 242 248 243 245 238 238 240 245 264 282 290 292 278 282 296 299 298 296 298 304 310 314 316 314 312 309 309 300 275 242 233 229 229 231 231 235 239 242 244 245
227 225 226 226 231 241 239 237 242 245 247 247 257 272 278 284 275 269 280 287 290 290 291 295 298 302 308 310 305 302 301 296 280 253 242 236 236 239 241 244 246 246 248 249
232 230 226 221 231 233 237 232 232 237 243 250 253 265 271 277 274 269 270 274 282 284 286 288 291 294 297 302 301 297 293 291 283 266 252 247 245 245 247 247 249 250 251 253
233 232 231 223 228 240 244 241 233 232 236 243 251 258 264 268 267 266 273 274 276 279 283 284 285 285 289 294 295 294 289 286 284 277 264 259 256 254 255 254 254 254 256 257
235 234 233 228 226 237 247 247 238 236 241 245 249 254 259 265 268 268 269 268 273 277 281 281 280 280 282 286 289 289 287 283 281 283 282 274 266 263 261 259 257 258 258 259
239 239 237 234 230 235 242 241 243 248 246 245 249 252 254 261 263 263 265 271 274 277 276 277 276 277 277 280 283 285 283 282 280 279 279 277 276 272 266 263 262 261 262 265
241 243 241 238 234 238 236 236 239 245 248 247 248 250 250 254 258 262 262 265 268 271 272 273 274 275 276 275 277 279 282 280 278 277 275 274 272 273 272 269 269 267 266 268
242 243 243 241 241 243 242 240 239 242 246 247 248 249 251 254 256 259 263 266 262 266 269 269 270 271 273 273 274 275 278 277 275 274 275 273 273 272 271 271 273 272 270 271
243 245 244 244 243 243 242 242 243 244 248 247 246 247 248 252 255 258 260 262 262 263 263 266 266 266 268 270 272 274 274 274 273 273 275 274 273 274 276 275 278 276 274 275
243 246 245 245 244 245 245 243 242 242 245 249 249 250 250 250 253 255 256 257 259 260 260 261 264 266 266 268 270 272 272 273 272 272 274 277 276 275 276 275 276 277 277 279
240 243 245 244 244 245 246 245 243 245 247 250 251 252 251 251 251 253 253 254 257 258 259 259 260 262 264 266 268 271 272 273 273 273 275 276 276 275 273 274 276 278 279 281
240 240 241 244 245 246 248 248 249 251 252 252 253 252 251 250 250 251 252 252 254 254 255 256 258 260 263 267 268 271 271 270 271 272 274 277 277 275 276 279 280 282 283 284
240 243 247 250 252 252 253 252 252 253 255 255 254 252 250 250 249 250 250 249 250 252 253 254 257 259 262 265 268 267 268 270 271 272 275 277 278 278 279 282 283 285 286 286
244 247 250 251 251 252 254 256 255 256 256 255 253 251 249 249 249 248 247 246 248 251 253 254 257 259 260 263 267 270 270 270 272 273 275 276 278 280 281 283 284 286 288 289
248 250 252 252 252 254 255 258 258 257 256 253 250 248 247 247 247 246 246 247 247 249 252 254 255 257 259 263 266 268 268 270 272 273 274 276 278 280 282 284 284 285 288 290
Height
5866 5868 5868 5868 5869 5871 5871 5873 5873 5873 5872 5872 5871 5869 5866 5862 5860 5857 5854 5851 5848 5845 5842 5840 5837 5836 5836 5835 5835 5836 5837 5839 5841 5844 5847 5850 5852 5855 5858 5861 5863 5864 5866 5868
5863 5864 5865 5864 5865 5867 5869 5869 5870 5871 5870 5870 5868 5867 5864 5861 5858 5855 5852 5849 5847 5844 5842 5839 5838 5836 5836 5835 5835 5835 5836 5838 5840 5842 5845 5848 5851 5853 5856 5859 5861 5863 5865 5867
5858 5861 5860 5861 5862 5863 5865 5865 5866 5867 5867 5866 5865 5863 5860 5858 5855 5852 5851 5848 5845 5843 5841 5839 5838 5836 5836 5835 5835 5834 5835 5837 5839 5841 5843 5846 5849 5851 5855 5857 5860 5862 5864 5866
5854 5856 5857 5858 5859 5860 5861 5862 5863 5863 5864 5863 5863 5859 5857 5855 5851 5849 5848 5846 5844 5843 5841 5839 5838 5836 5836 5835 5834 5834 5835 5837 5838 5840 5842 5845 5847 5850 5853 5855 5858 5861 5863 5865
5850 5851 5852 5853 5855 5856 5857 5859 5859 5859 5860 5859 5859 5857 5853 5852 5850 5848 5846 5845 5844 5842 5840 5839 5837 5836 5835 5835 5834 5834 5835 5836 5837 5839 5841 5843 5846 5849 5851 5854 5856 5859 5861 5863
5845 5848 5849 5849 5851 5852 5853 5855 5855 5855 5856 5856 5855 5853 5851 5850 5849 5848 5847 5845 5843 5842 5840 5839 5837 5836 5835 5834 5834 5834 5834 5835 5836 5838 5840 5842 5845 5847 5850 5852 5855 5857 5859 5861
5841 5843 5845 5846 5847 5848 5850 5851 5853 5853 5853 5852 5850 5848 5849 5849 5849 5848 5846 5845 5843 5842 5840 5838 5837 5835 5834 5834 5834 5834 5834 5834 5835 5837 5839 5841 5843 5845 5848 5850 5853 5855 5858 5860
5838 5840 5841 5842 5843 5845 5846 5848 5850 5851 5850 5848 5845 5844 5845 5845 5846 5846 5845 5844 5843 5841 5839 5838 5836 5835 5834 5833 5833 5833 5833 5833 5834 5836 5838 5840 5842 5843 5846 5848 5851 5853 5855 5857
5836 5839 5840 5840 5840 5841 5842 5845 5848 5849 5848 5847 5845 5843 5842 5841 5843 5844 5843 5842 5841 5840 5838 5837 5836 5835 5833 5833 5832 5832 5832 5832 5833 5834 5836 5838 5840 5842 5844 5846 5849 5851 5853 5855
5830 5834 5836 5837 5838 5838 5840 5842 5844 5845 5845 5845 5844 5841 5837 5837 5839 5841 5841 5840 5840 5839 5837 5836 5835 5834 5833 5832 5831 5831 5830 5830 5831 5832 5834 5835 5838 5840 5842 5844 5846 5848 5850 5852
5825 5828 5831 5834 5834 5836 5837 5838 5839 5841 5842 5842 5841 5840 5834 5835 5836 5838 5838 5838 5838 5837 5836 5836 5834 5833 5832 5832 5830 5830 5829 5829 5829 5830 5831 5833 5835 5837 5839 5841 5843 5845 5847 5849
5820 5823 5825 5828 5831 5832 5834 5835 5836 5837 5838 5839 5838 5839 5834 5832 5832 5834 5836 5836 5836 5835 5835 5834 5833 5832 5831 5831 5830 5829 5828 5828 5828 5828 5829 5831 5833 5835 5836 5838 5840 5842 5844 5845
5813 5816 5820 5824 5828 5829 5829 5831 5832 5834 5835 5835 5836 5836 5833 5832 5829 5830 5831 5833 5833 5833 5833 5833 5832 5831 5830 5830 5829 5828 5828 5827 5827 5827 5828 5829 5830 5832 5833 5835 5837 5838 5840 5841
5807 5810 5814 5819 5821 5821 5822 5825 5827 5829 5831 5832 5833 5831 5829 5827 5826 5825 5826 5828 5830 5830 5830 5830 5830 5829 5829 5828 5827 5827 5827 5826 5826 5826 5826 5827 5828 5829 5830 5832 5833 5834 5835 5836
5800 5802 5806 5810 5813 5813 5815 5817 5819 5822 5825 5827 5827 5826 5824 5822 5822 5822 5822 5824 5827 5827 5827 5827 5827 5827 5827 5826 5826 5825 5825 5824 5824 5824 5824 5824 5825 5826 5827 5828 5829 5830 5831 5832
5791 5795 5798 5802 5806 5807 5809 5810 5812 5815 5819 5821 5821 5821 5820 5816 5818 5817 5817 5819 5821 5823 5824 5824 5824 5824 5824 5824 5823 5823 5822 5822 5822 5822 5822 5822 5823 5823 5823 5824 5825 5826 5826 5827
5783 5787 5791 5795 5799 5800 5802 5805 5807 5809 5812 5814 5814 5815 5814 5812 5811 5811 5812 5814 5816 5818 5819 5820 5820 5820 5820 5821 5821 5820 5820 5820 5820 5820 5820 5820 5820 5819 5819 5820 5820 5821 5822 5822
5777 5779 5783 5787 5791 5791 5798 5798 5800 5803 5805 5805 5806 5807 5807 5806 5806 5807 5808 5810 5812 5813 5815 5815 5816 5816 5816 5817 5817 5817 5817 5817 5817 5817 5816 5816 5816 5816 5816 5816 5816 5816 5816 5817
5769 5772 5775 5779 5782 5784 5790 5791 5792 5794 5796 5796 5798 5799 5800 5798 5801 5802 5803 5804 5806 5808 5809 5810 5811 5811 5812 5812 5812 5813 5813 5813 5813 5813 5813 5813 5813 5812 5812 5812 5812 5811 5811 5811
5763 5765 5769 5771 5774 5777 5781 5781 5783 5786 5786 5787 5789 5790 5791 5791 5793 5796 5797 5798 5800 5802 5803 5804 5805 5806 5807 5807 5807 5808 5809 5809 5809 5809 5808 5808 5808 5808 5807 5807 5807 5806 5806 5806
5756 5758 5761 5763 5765 5769 5769 5771 5775 5778 5777 5778 5779 5781 5783 5784 5786 5789 5790 5792 5793 5795 5797 5798 5799 5800 5801 5802 5802 5802 5803 5803 5803 5803 5803 5803 5803 5802 5802 5801 5801 5801 5800 5800
5749 5751 5753 5756 5759 5762 5759 5761 5765 5766 5767 5769 5771 5773 5775 5776 5778 5780 5782 5784 5786 5787 5790 5791 5793 5793 5794 5795 5796 5797 5797 5797 5797 5797 5797 5797 5797 5797 5796 5795 5795 5794 5794 5793
5742 5744 5745 5748 5751 5750 5751 5753 5755 5757 5759 5760 5762 5765 5766 5768 5769 5772 5773 5776 5779 5780 5783 5785 5786 5787 5788 5789 5790 5790 5791 5791 5791 5791 5791 5791 5790 5790 5789 5789 5788 5787 5787 5786
5735 5736 5739 5740 5741 5742 5744 5745 5747 5749 5751 5752 5753 5755 5757 5759 5760 5763 5766 5769 5771 5772 5775 5777 5779 5781 5782 5783 5784 5784 5784 5784 5785 5785 5784 5784 5783 5783 5782 5781 5780 5780 5779 5778
5727 5729 5731 5732 5734 5735 5736 5737 5739 5740 5741 5743 5744 5746 5748 5751 5752 5756 5758 5761 5764 5766 5768 5770 5772 5774 5775 5776 5777 5777 5777 5777 5777 5777 5777 5777 5776 5775 5775 5774 5773 5772 5770 5769
5721 5722 5724 5725 5726 5728 5729 5730 5730 5732 5733 5734 5736 5737 5740 5742 5745 5748 5751 5754 5757 5759 5761 5763 5765 5766 5768 5769 5770 5770 5770 5770 5770 5770 5770 5769 5769 5768 5767 5766 5765 5763 5762 5760